Location: Bucquoy
(50.1391°N, 2.7097°E)
Time: 08:44:02
(UTC+00:00)

Helios 1A - Pass Details

Date: 06 May 2021
Orbit: 585 x 601 km, 98.2° (Epoch: 12 June)

Event Time Altitude Azimuth Distance (km) Brightness Sun altitude
Exits shadow 00:41:30 72° 161° (SSE) 624 2.8 -22.2°
Maximum altitude 00:41:55 89° 76° (ENE) 598 2.8 -22.2°
Drops below altitude 10° 00:46:06 10° 346° (NNW) 1,926 6.4 -22.0°
Sets 00:48:16 0° 346° (NNW) 2,830 7.4 -21.9°
